Terug naar catalogus

CZ-6A DEB

ActiefPO
NORAD 61331·DEBRIS·🇨🇳 China

Gelanceerd Aug 6, 2024 vanaf Taiyuan Satellite Launch Center

Loading…

Volgende Passages (komende 24 uur)

TLE

VersSource: Space-Track

Epoch: Sep 14, 2026, 12:26 UTC

1 61331U 24140UU  26257.51849086  .00006617  00000-0  79760-3 0  9990
2 61331  89.1387 272.0635 0099058 248.6877 110.3750 14.80240523108960

Volg CZ-6A DEB in realtime met AllMySat

Download on the App Store